星链-1548 (STARLINK-1548 )

导读 | 星芒AI

STARLINK-1548 是 SpaceX 星链计划中的一颗低轨通信卫星,属于第 15 批发射的星链卫星群。该卫星于 2022 年发射,运行在约 550 公里的轨道高度,旨在为全球用户提供高速互联网服务。作为星链网络的一部分,STARLINK-1548 采用先进通信技术,支持宽带数据传输,并具备自动避障能力,以确保在轨安全。该卫星的部署有助于扩大星链系统的覆盖范围,提升偏远地区的网络接入能力。

基本信息
目录编号:
46054
目录名称:
STARLINK-1548
国际标识:
2020-055AD
轨道中心:
EARTH
卫星名称:
星链-1548
卫星全名:
星链-1548 (STARLINK-1548 )
卫星状态:
在轨 (已飞行1957 天)
发射日期:
2020-08-07 UTC
国别 :
美国 (US)
星等 :
--
轨道信息
数据来源 国际轨道数据
星历时间: 2025-12-15T10:30:16+0800
1天前
查看轨道信息
半长轴: 6925.359km
偏心率: 0.0001204
轨道倾角: 53.055°
近地点辐角 90.823°
升交点赤经 136.336°
平近点角 269.290°
近地点: 546.39km
远地点: 548.058km
周期: 95.592分钟
每日圈数: 15.063967
详细信息
固有亮度:
5
最大亮度:
2.5
卫星平台:
Starlink V1.0
覆盖范围:
全球
运营商:
太空探索技术公司
运营商所在国:
美国
制造商(研发单位):
太空探索技术公司
制造商所在国:
美国
使用方式:
暂无
卫星简介
星链(Starlink)计划是由太空探索技术公司(SpaceX)提出的一个巨型低轨卫星互联网星座项目,计划在2019年至2024年间在太空搭建由约1.2万颗卫星组成的“星链”网络,其中1584颗将部署在地球上空550千米处的近地轨道,并从2020年开始工作。该卫星仍在工作。
2D轨道图
3D轨道图
轨道高度分析图
轨道倾角分析图
轨道综合分析图
查看轨道综合分析图